This demonstration page uses our WeatherBlox Daily Observations layout. Learn more.

Left ArrowRight Arrow

41.12389, -100.76542

Hourly Observations for November 16, 2016

Temp ( °F °C ) Dew Point ( °F °C ) Humidity (%) Winds ( mph kmh ) Pressure ( in mb ) Visibility ( mi km ) Precip ( " mm )
12:53 am 00:53 Clear 38 3.3 30 -1.1 73 73 E 8 13 29.88 1012 10 16 0.00 0.00
1:53 am 01:53 Clear 38 3.3 31 -0.6 76 76 ESE 8 13 29.85 1011 10 16 0.00 0.00
2:53 am 02:53 Clear 38 3.3 32 0 79 79 E 5 7 29.82 1010 10 16 0.00 0.00
3:53 am 03:53 Clear 48 8.9 36 2.2 63 63 SE 12 19 29.78 1009 10 16 0.00 0.00
4:53 am 04:53 Clear 47 8.3 35 1.7 63 63 SE 10 17 29.77 1008 10 16 0.00 0.00
5:53 am 05:53 Clear 41 5 34 1.1 76 76 E 8 13 29.77 1008 10 16 0.00 0.00
6:53 am 06:53 Clear 38 3.3 33 0.6 83 83 ESE 7 11 29.77 1008 10 16 0.00 0.00
7:53 am 07:53 Sunny 38 3.3 34 1.1 86 86 E 5 7 29.76 1008 10 16 0.00 0.00
8:53 am 08:53 Sunny 44 6.7 37 2.8 76 76 ESE 5 7 29.72 1007 10 16 0.00 0.00
9:53 am 09:53 Sunny 52 11.1 35 1.7 53 53 SSE 6 9 29.68 1005 10 16 0.00 0.00
10:53 am 10:53 Sunny 55 12.8 35 1.7 47 47 SSW 5 7 29.66 1004 10 16 0.00 0.00
11:53 am 11:53 Sunny 59 15 35 1.7 41 41 NW 6 9 29.62 1003 10 16 0.00 0.00
12:53 pm 12:53 Sunny 63 17.2 35 1.7 35 35 Calm 29.57 1001 10 16 0.00 0.00
1:53 pm 13:53 Sunny 66 18.9 36 2.2 33 33 SE 6 9 29.54 1000 10 16 0.00 0.00
2:53 pm 14:53 Sunny 67 19.4 37 2.8 33 33 E 5 7 29.52 1000 10 16 0.00 0.00
3:53 pm 15:53 Sunny 65 18.3 41 5 42 42 ESE 6 9 29.50 999 10 16 0.00 0.00
4:53 pm 16:53 Sunny 59 15 40 4.4 49 49 ENE 5 7 29.51 999 10 16 0.00 0.00
5:53 pm 17:53 Clear 50 10 35 1.7 57 57 NE 7 11 29.55 1001 10 16 0.00 0.00
6:53 pm 18:53 Clear 55 12.8 35 1.7 47 47 NNE 9 15 29.55 1001 10 16 0.00 0.00
7:53 pm 19:53 Clear 55 12.8 30 -1.1 38 38 NNE 22 35 29.57 1001 10 16 0.00 0.00
8:53 pm 20:53 Clear 51 10.6 31 -0.6 46 46 NNE 22 35 29.55 1001 10 16 0.00 0.00
9:53 pm 21:53 Clear 50 10 34 1.1 54 54 NNE 22 35 29.54 1000 10 16 0.00 0.00
10:53 pm 22:53 Clear 49 9.4 34 1.1 56 56 NNE 22 35 29.52 1000 10 16 0.00 0.00
11:53 pm 23:53 Clear 48 8.9 34 1.1 58 58 NNE 24 39 29.52 1000 10 16 0.00 0.00

Powered by AerisWeather